Waarnemingen

Advertentie
Mijn weer
Cannes, Frankrijk (7684): temperatuur & dauwpunt: 16.04.2019 06:00:00 - 22.04.2019 06:00:00 (CEST)Cannes, Frankrijk (7684): temperatuur 5cm: 16.04.2019 06:00:00 - 22.04.2019 06:00:00 (CEST)Cannes, Frankrijk (7684): windsnelheid & windstoten: 16.04.2019 06:00:00 - 22.04.2019 06:00:00 (CEST)Cannes, Frankrijk (7684): windrichting: 16.04.2019 06:00:00 - 22.04.2019 06:00:00 (CEST)Cannes, Frankrijk (7684): luchtdruk: 16.04.2019 06:00:00 - 22.04.2019 06:00:00 (CEST)Cannes, Frankrijk (7684): zicht: 16.04.2019 06:00:00 - 22.04.2019 06:00:00 (CEST)Cannes, Frankrijk (7684): neerslag: 16.04.2019 06:00:00 - 22.04.2019 06:00:00 (CEST)
Datum & Tijd tt [°C] td [°C] tt 5cm [°C] ff [km/u] ff [kn] fx [km/u] fx [kn] dd ppp [hPa] vv [km] rr [mm]
22.04.2019 06:00:00 18,1 7,2 8,2 10 5 24 13 O 1006,2 20 0,0
22.04.2019 05:00:00 12,0 7,3 9,7 5 3 11 6 N 1006,8 46 0,0
22.04.2019 04:00:00 12,0 7,1 10,3 5 3 16 8 NNO 1007,9 42 0,0
22.04.2019 03:00:00 12,4 7,5 9,7 8 5 16 9 NNO 1008,8 40 0,0
22.04.2019 02:00:00 14,2 8,6 10,3 6 3 14 8 N 1010,2 20 0,0
22.04.2019 01:00:00 17,2 9,1 11,9 14 7 28 15 ZZO 1011,1 38 0,0
22.04.2019 00:00:00 15,2 9,5 12,1 8 5 17 9 ZW 1011,5 19 0,0
21.04.2019 23:00:00 14,8 10,8 10,6 9 5 14 8 WZW 1011,6 33 0,0
21.04.2019 22:00:00 16,1 9,7 13,3 7 4 19 10 WZW 1011,9 44 0,0
21.04.2019 21:00:00 18,0 7,7 15,2 6 3 23 13 O 1012,0 60 0,0
21.04.2019 20:00:00 18,6 5,1 16,2 8 5 33 18 ONO 1012,3 60 0,0
21.04.2019 19:00:00 19,1 4,8 18,4 14 7 39 21 ONO 1013,0 56 0,0
21.04.2019 18:00:00 20,3 3,9 19,0 16 9 36 20 O 1013,8 60 0,0
21.04.2019 17:00:00 19,3 5,7 17,7 11 6 36 19 ONO 1014,4 60 0,0
21.04.2019 16:00:00 19,4 5,4 18,1 11 6 45 24 O 1014,6 60 0,0
21.04.2019 15:00:00 20,1 4,6 19,6 20 11 63 34 O 1015,3 56 0,0
21.04.2019 14:00:00 20,2 5,8 18,7 18 10 47 26 OZO 1015,8 47 0,0
21.04.2019 13:00:00 19,4 5,8 18,6 14 8 40 22 O 1016,6 60 0,0
21.04.2019 12:00:00 19,7 4,6 18,3 19 10 39 21 O 1017,2 56 0,0
21.04.2019 11:00:00 19,5 4,0 17,7 19 11 46 25 ONO 1017,3 56 0,0
21.04.2019 10:00:00 18,8 5,9 17,5 16 9 44 24 O 1017,4 60 0,0
21.04.2019 09:00:00 19,1 5,9 17,4 16 9 41 22 O 1017,1 52 0,0
21.04.2019 08:00:00 19,1 5,5 17,2 19 10 48 26 ONO 1017,2 60 0,0
21.04.2019 07:00:00 19,4 4,3 15,8 17 9 45 24 O 1017,4 60 0,0
21.04.2019 06:00:00 18,8 4,2 15,2 10 6 27 15 NO 1017,6 60 0,0
21.04.2019 05:00:00 17,9 7,3 13,9 13 7 32 17 NNO 1018,2 60 0,0
21.04.2019 04:00:00 18,0 7,4 13,9 8 5 28 15 ONO 1019,6 52 0,0
21.04.2019 03:00:00 17,3 8,2 13,0 5 3 14 7 ONO 1019,7 60 0,0
21.04.2019 02:00:00 16,5 8,7 12,9 3 2 13 7 ZZO 1020,2 57 0,0
21.04.2019 01:00:00 14,6 7,9 12,3 8 4 11 6 W 1020,2 44 0,0
21.04.2019 00:00:00 15,3 6,8 12,9 6 3 11 6 N 1020,5 46 0,0
20.04.2019 23:00:00 16,7 6,5 13,8 8 4 14 7 N 1020,3 56 0,0
20.04.2019 22:00:00 17,3 5,6 13,9 8 5 14 8 NNO 1020,6 59 0,0
20.04.2019 21:00:00 17,7 5,3 14,0 8 5 16 9 N 1021,0 60 0,0
20.04.2019 20:00:00 18,2 5,7 15,5 8 5 18 10 NNO 1021,2 60 0,0
20.04.2019 19:00:00 19,0 5,4 17,4 7 4 21 11 NO 1021,5 60 0,0
20.04.2019 18:00:00 19,2 5,6 18,9 9 5 33 18 ONO 1022,1 60 0,0
20.04.2019 17:00:00 19,5 4,4 19,6 14 7 33 18 OZO 1022,5 53 0,0
20.04.2019 16:00:00 20,2 4,6 22,4 18 10 50 27 OZO 1022,7 60 0,0
20.04.2019 15:00:00 21,2 2,9 23,8 19 11 59 32 O 1022,6 39 0,0
20.04.2019 14:00:00 22,0 3,6 24,6 15 8 48 26 OZO 1023,7 44 0,0
20.04.2019 13:00:00 20,3 5,9 23,6 20 11 42 23 O 1024,3 19 0,0
20.04.2019 12:00:00 19,6 7,7 23,9 16 8 35 19 OZO 1025,1 55 0,0
20.04.2019 11:00:00 20,0 6,0 20,5 18 10 40 22 OZO 1025,4 60 0,0
20.04.2019 10:00:00 19,4 6,5 16,2 11 6 35 19 O 1025,5 20 0,0
20.04.2019 09:00:00 14,8 7,1 9,9 6 3 18 10 NO 1025,6 39 0,0
20.04.2019 08:00:00 10,3 4,6 6,7 9 5 19 11 NNO 1025,4 33 0,0
20.04.2019 07:00:00 8,4 3,8 6,2 10 6 19 10 N 1025,1 42 0,0
20.04.2019 06:00:00 8,4 3,8 6,3 8 4 18 10 N 1025,2 43 0,0
20.04.2019 05:00:00 8,7 4,1 6,5 10 5 18 10 N 1025,5 46 0,0
20.04.2019 04:00:00 8,9 4,5 6,6 8 4 16 9 N 1025,5 39 0,0
20.04.2019 03:00:00 9,5 4,7 7,2 8 4 16 9 NNO 1025,4 35 0,0
20.04.2019 02:00:00 10,1 5,1 7,9 10 5 15 8 N 1026,0 35 0,0
20.04.2019 01:00:00 10,6 5,4 7,9 6 4 13 7 N 1026,4 35 0,0
20.04.2019 00:00:00 11,1 5,6 8,4 6 4 15 8 N 1026,7 35 0,0
19.04.2019 23:00:00 12,5 5,9 9,8 7 4 18 10 NNO 1027,0 48 0,0
19.04.2019 22:00:00 14,6 5,7 10,9 6 3 12 7 NNO 1027,0 50 0,0
19.04.2019 21:00:00 16,1 6,0 10,9 6 3 10 6 NNO 1026,8 37 0,0
19.04.2019 20:00:00 18,3 4,5 14,6 6 4 18 10 NNO 1026,4 60 0,0
19.04.2019 19:00:00 19,9 4,4 20,7 7 4 22 12 OZO 1026,2 60 0,0
19.04.2019 18:00:00 20,6 4,2 24,5 11 6 26 14 ONO 1026,2 55 0,0
19.04.2019 17:00:00 21,5 5,0 26,5 11 6 30 16 O 1026,3 39 0,0
19.04.2019 16:00:00 21,5 3,2 28,1 14 8 36 19 O 1026,6 34 0,0
19.04.2019 15:00:00 21,1 4,2 26,4 20 11 45 24 O 1027,1 31 0,0
19.04.2019 14:00:00 21,3 3,9 25,8 16 9 43 23 OZO 1027,4 32 0,0
19.04.2019 13:00:00 21,1 3,8 25,3 18 10 48 26 OZO 1027,3 34 0,0
19.04.2019 12:00:00 21,2 4,3 23,9 20 11 49 27 OZO 1027,2 39 0,0
19.04.2019 11:00:00 20,6 3,8 21,4 16 9 44 24 O 1026,9 20 0,0
19.04.2019 10:00:00 19,9 4,8 19,7 14 7 32 17 O 1026,5 50 0,0
19.04.2019 09:00:00 18,4 6,2 12,9 11 6 24 13 ONO 1026,0 47 0,0
19.04.2019 08:00:00 15,6 8,3 11,3 6 4 22 12 N 1025,8 33 0,0
19.04.2019 07:00:00 15,2 7,2 11,6 8 4 29 16 NNO 1025,3 16 0,0
19.04.2019 06:00:00 16,9 4,2 14,1 13 7 35 19 ONO 1024,9 60 0,0
19.04.2019 05:00:00 17,1 5,4 14,1 14 7 36 20 ONO 1024,9 60 0,0
19.04.2019 04:00:00 17,6 6,8 13,5 16 9 36 20 O 1024,3 59 0,0
19.04.2019 03:00:00 17,3 7,6 9,3 8 5 26 14 ONO 1023,9 56 0,0
19.04.2019 02:00:00 11,5 5,6 9,2 6 3 11 6 N 1023,9 30 0,0
19.04.2019 01:00:00 11,5 5,1 9,2 6 3 13 7 N 1023,6 30 0,0
19.04.2019 00:00:00 12,4 4,8 9,9 8 4 16 9 NNO 1023,2 36 0,0
18.04.2019 23:00:00 13,3 4,4 10,6 10 5 16 8 NNO 1022,8 37 0,0
18.04.2019 22:00:00 14,6 4,0 10,6 8 5 12 6 NNO 1022,7 39 0,0
18.04.2019 21:00:00 17,4 1,8 10,8 6 3 12 6 NNO 1022,4 60 0,0
18.04.2019 20:00:00 18,7 1,7 14,6 7 4 18 10 NNO 1021,9 60 0,0
18.04.2019 19:00:00 19,8 1,7 18,2 10 5 28 15 ONO 1021,5 58 0,0
18.04.2019 18:00:00 20,5 0,8 21,0 13 7 40 21 ONO 1021,5 56 0,0
18.04.2019 17:00:00 21,1 1,9 24,3 18 10 36 19 ONO 1021,6 53 0,0
18.04.2019 16:00:00 20,8 3,5 26,4 14 7 38 21 O 1021,9 20 0,0
18.04.2019 15:00:00 20,4 4,8 26,5 17 9 31 17 O 1022,0 42 0,0
18.04.2019 14:00:00 20,6 5,8 25,6 13 7 35 19 O 1022,2 36 0,0
18.04.2019 13:00:00 20,0 6,7 24,6 18 10 36 19 O 1022,4 20 0,0
18.04.2019 12:00:00 20,0 6,0 24,4 18 10 46 25 O 1022,7 20 0,0
18.04.2019 11:00:00 19,0 8,0 22,4 17 9 35 19 O 1022,6 19 0,0
18.04.2019 10:00:00 18,7 6,8 16,5 8 4 28 15 ONO 1022,2 20 0,0
18.04.2019 09:00:00 13,4 8,0 9,8 4 2 12 7 NNO 1021,8 20 0,0
18.04.2019 08:00:00 9,3 5,8 6,6 4 2 11 6 N 1021,3 19 0,0
18.04.2019 07:00:00 8,0 5,1 6,1 8 4 14 7 NNO 1020,9 20 0,0
18.04.2019 06:00:00 8,1 5,4 6,2 8 4 12 7 NNO 1020,8 33 0,0
18.04.2019 05:00:00 8,1 5,4 5,9 6 3 14 8 N 1020,7 34 0,0
18.04.2019 04:00:00 8,2 5,5 6,1 6 4 11 6 N 1021,0 35 0,0
18.04.2019 03:00:00 8,7 5,8 6,9 7 4 13 7 N 1021,4 37 0,0
18.04.2019 02:00:00 9,0 5,9 6,4 7 4 13 7 N 1021,9 38 0,0
18.04.2019 01:00:00 9,3 6,0 6,8 5 3 10 5 N 1022,2 41 0,0
18.04.2019 00:00:00 9,8 6,0 7,3 7 4 11 6 N 1021,9 45 0,0
17.04.2019 23:00:00 10,6 6,5 8,1 6 4 11 6 NNO 1021,5 44 0,0
17.04.2019 22:00:00 11,7 6,8 7,8 5 3 9 5 NNO 1021,3 48 0,0
17.04.2019 21:00:00 13,3 7,3 8,2 0 0 5 3 N 1020,6 59 0,0
17.04.2019 20:00:00 14,8 8,5 11,9 4 2 7 4 ZO 1020,2 60 0,0
17.04.2019 19:00:00 15,9 6,9 16,6 4 2 10 5 Z 1020,2 60 0,0
17.04.2019 18:00:00 16,4 8,1 19,2 8 4 16 8 Z 1020,2 60 0,0
17.04.2019 17:00:00 17,4 8,3 26,4 10 6 18 10 Z 1020,5 60 0,0
17.04.2019 16:00:00 17,0 9,9 26,3 12 7 21 11 Z 1020,6 20 0,0
17.04.2019 15:00:00 17,0 10,1 27,5 14 8 22 12 ZZO 1021,0 49 0,0
17.04.2019 14:00:00 17,3 8,7 27,8 13 7 19 11 Z 1021,2 51 0,0
17.04.2019 13:00:00 17,6 8,2 28,0 11 6 16 9 Z 1021,4 60 0,0
17.04.2019 12:00:00 17,0 10,4 24,3 9 5 15 8 Z 1021,5 60 0,0
17.04.2019 11:00:00 16,3 9,0 21,3 9 5 15 8 Z 1021,6 60 0,0
17.04.2019 10:00:00 15,9 8,1 14,5 3 1 12 6 ZW 1021,3 20 0,0
17.04.2019 09:00:00 11,8 7,3 8,2 7 4 14 7 NNO 1021,1 60 0,0
17.04.2019 08:00:00 8,2 6,2 4,8 8 4 15 8 N 1020,9 19 0,0
17.04.2019 07:00:00 6,2 5,0 4,7 5 3 13 7 N 1020,4 30 0,0
17.04.2019 06:00:00 6,4 5,3 4,2 6 3 12 6 NNO 1020,2 29 0,0
17.04.2019 05:00:00 6,6 5,5 4,9 6 3 13 7 N 1020,2 30 0,0
17.04.2019 04:00:00 7,1 6,0 5,6 8 4 12 7 N 1020,5 25 0,0
17.04.2019 03:00:00 7,4 6,3 5,7 7 4 11 6 N 1020,6 28 0,0
17.04.2019 02:00:00 7,8 6,7 5,7 6 3 10 5 N 1020,9 20 0,0
17.04.2019 01:00:00 8,4 7,5 6,2 5 3 10 5 N 1021,0 20 0,0
17.04.2019 00:00:00 9,0 7,9 6,6 7 4 11 6 N 1020,9 19 0,0
16.04.2019 23:00:00 9,6 8,4 5,9 5 3 9 5 NNO 1020,9 16 0,0
16.04.2019 22:00:00 11,5 9,6 7,0 2 1 6 3 NNO 1020,7 17 0,0
16.04.2019 21:00:00 12,4 9,0 9,8 0 0 8 4 N 1020,3 43 0,0
16.04.2019 20:00:00 13,7 9,3 12,6 0 0 6 4 N 1020,1 31 0,0
16.04.2019 19:00:00 14,4 10,0 13,4 4 2 9 5 NNO 1020,0 23 0,0
16.04.2019 18:00:00 15,4 7,9 14,5 5 3 15 8 N 1019,8 20 0,0
16.04.2019 17:00:00 15,6 8,1 16,3 11 6 23 12 Z 1019,7 60 0,0
16.04.2019 16:00:00 16,3 7,0 18,6 12 7 17 9 Z 1019,7 60 0,0
16.04.2019 15:00:00 16,9 8,3 19,4 8 5 16 9 Z 1020,1 58 0,0
16.04.2019 14:00:00 17,4 8,8 18,7 3 2 14 7 NW 1020,1 60 0,0
16.04.2019 13:00:00 16,3 8,8 19,0 6 3 12 7 N 1020,5 54 0,0
16.04.2019 12:00:00 15,7 8,0 17,2 3 2 11 6 NNW 1020,7 46 0,0
16.04.2019 11:00:00 15,4 7,4 16,8 4 2 12 7 NNW 1020,4 19 0,0
16.04.2019 10:00:00 14,5 7,3 14,7 0 0 9 5 N 1019,8 54 0,0
16.04.2019 09:00:00 12,8 7,2 11,3 5 3 9 5 N 1019,5 40 0,0
16.04.2019 08:00:00 10,9 6,8 9,2 5 3 8 5 NNO 1019,3 17 0,0
16.04.2019 07:00:00 10,4 6,3 9,0 3 2 8 5 N 1018,9 60 0,0
16.04.2019 06:00:00 10,1 6,2 8,6 5 3 12 7 N 1018,5 60 0,0

tt = temperatuur
td = dauwpunt
tt 5cm = temperatuur 5cm
ff = windsnelheid
fx = windstoten
dd = windrichting
ppp = luchtdruk
vv = zicht
rr = neerslag

Weerstations in de omgeving